DateTimeUTC,F1_A11,F1_S11,BsB_S11,BsG_S11,BsR_S11,BbsB_S11,BbsG_S11,BbsR_S11,BaB_A11,BaG_A11,BaR_A11,Tu_S11,T_S11,Uu_S11,U_S11,P_S11,T1_A11
2021-10-02T23:00:00Z,00000200,21000000,,,,,,,0000.80,0000.39,0000.56,16.9,24.1,,00.0,0671.9,30.9
2021-10-02T23:01:00Z,00000200,21000000,,,,,,,0000.67,0000.85,0000.57,16.9,24.1,,00.0,0671.9,30.9
2021-10-02T23:02:00Z,00000200,21000000,,,,,,,0000.72,0000.72,0000.50,16.9,24.1,,00.0,0671.9,31.0
2021-10-02T23:03:00Z,00000200,61000000,,,,,,,0113.65,0105.80,0086.01,16.9,24.1,,00.0,0671.9,31.0
2021-10-02T23:04:00Z,00000200,41000000,0013.65,0010.79,0006.86,0002.82,0002.78,0002.01,0146.09,0136.05,0110.95,17.2,23.9,,00.0,0672.8,31.0
2021-10-02T23:05:00Z,00000200,01000000,0019.16,0014.20,0008.52,0004.04,0003.50,0002.55,0205.39,0191.79,0155.74,17.3,23.9,,00.0,0672.8,31.0
2021-10-02T23:06:00Z,00000200,01000000,0009.33,0007.25,0004.46,0001.66,0001.75,0001.22,0115.88,0108.59,0089.18,17.4,23.9,,00.0,0672.8,31.0
2021-10-02T23:07:00Z,00000200,01000000,0001.20,0000.64,0000.25,0000.62,0000.05,0000.05,0012.47,0011.85,0009.82,17.4,24.0,,00.0,0672.8,31.0
2021-10-02T23:08:00Z,00000200,01000000,0000.34,0000.37,0000.34,0000.19,0000.11,0000.10,0001.69,0001.53,0000.99,17.5,24.0,,00.0,0672.8,31.0
2021-10-02T23:09:00Z,00000200,01000000,0000.50,0000.22,0000.19,0000.20,0000.04,0000.07,0001.07,0000.79,0000.68,17.5,24.0,,00.0,0672.8,31.0
2021-10-02T23:10:00Z,00000200,01000000,0001.26,0000.12,0000.28,-000.35,-000.18,0000.01,0000.93,0001.02,0000.87,17.4,24.0,,00.0,0672.8,31.0
2021-10-02T23:11:00Z,00000200,01000000,0000.60,0000.44,0000.33,-000.77,0000.07,0000.09,0000.92,0000.61,0000.42,17.4,23.9,,00.0,0672.8,31.0
2021-10-02T23:12:00Z,00000200,01000000,-000.47,0000.46,0000.09,0000.22,0000.14,0000.26,0000.53,0000.60,0000.47,17.3,23.9,,00.0,0672.8,31.0
2021-10-02T23:13:00Z,00000200,01000000,0000.24,0000.39,0000.19,-000.33,0000.08,0000.16,0000.62,0000.49,0000.75,17.2,23.9,,00.0,0672.8,30.9
2021-10-02T23:14:00Z,00000200,01000000,0000.84,0000.33,0000.02,0000.64,0000.41,-000.06,0000.72,0000.87,0000.11,17.2,23.8,,00.0,0672.8,30.9
2021-10-02T23:15:00Z,00000200,01000000,-000.29,0000.49,0000.32,-000.41,0000.26,0000.34,0000.65,0000.60,0000.68,17.1,23.8,,00.0,0672.8,30.9
2021-10-02T23:16:00Z,00000200,01000000,-000.23,0000.30,0000.13,-000.55,-000.08,0000.20,0000.43,0000.50,0000.54,17.1,23.8,,00.0,0672.8,30.9
2021-10-02T23:17:00Z,00000200,01000000,0000.35,0000.29,0000.16,-000.11,0000.12,0000.07,0000.53,0000.67,0000.31,17.1,23.8,,00.0,0672.7,30.9
2021-10-02T23:18:00Z,00000200,01000000,0001.05,0000.28,0000.44,0000.15,0000.06,0000.28,0002.03,0001.47,0001.26,17.2,23.8,,00.0,0672.7,31.0
2021-10-02T23:19:00Z,00000200,01000000,0000.68,0000.97,0000.64,0000.05,0000.23,0000.60,0007.20,0006.86,0005.46,17.2,23.8,,00.0,0672.7,31.0
2021-10-02T23:20:00Z,00000200,01000000,0000.95,0000.45,0000.25,-000.28,0000.26,0000.61,0003.26,0003.21,0002.69,17.3,23.8,,00.0,0672.7,31.0
2021-10-02T23:21:00Z,00000200,01000000,0000.15,-000.08,0000.06,0000.47,0000.29,0000.14,0000.92,0000.34,0000.56,17.4,23.9,,00.0,0672.7,31.0
2021-10-02T23:22:00Z,00000200,01000000,0000.62,0000.70,0000.34,-000.04,0000.22,0000.29,0000.36,0000.49,0000.38,17.4,23.9,,00.0,0672.7,31.0
2021-10-02T23:23:00Z,00000200,01000000,0002.87,0002.08,0001.40,0000.28,0000.46,0000.61,0023.40,0021.79,0017.54,17.4,23.9,,00.0,0672.7,31.0
2021-10-02T23:24:00Z,00000200,01000000,0019.00,0013.96,0009.48,0004.59,0003.52,0002.76,0195.52,0181.58,0147.80,17.4,23.9,,00.0,0672.7,31.0
2021-10-02T23:25:00Z,00000200,01000000,0023.64,0016.85,0010.50,0004.65,0004.21,0003.11,0257.22,0240.00,0195.70,17.3,23.9,,00.0,0672.7,31.0
2021-10-02T23:26:00Z,00000200,01000000,0008.27,0005.72,0003.13,0001.62,0001.59,0001.01,0098.43,0092.80,0075.72,17.3,23.9,,00.0,0672.7,31.0
2021-10-02T23:27:00Z,00000200,01000000,0000.74,0000.21,-000.03,0000.40,0000.23,-000.09,0002.86,0002.57,0002.13,17.2,23.8,,00.0,0672.6,31.0
2021-10-02T23:28:00Z,00000200,01000000,-000.09,0000.44,0000.11,-000.60,-000.11,0000.36,0001.29,0001.48,0001.23,17.2,23.8,,00.0,0672.6,30.9
2021-10-02T23:29:00Z,00000200,01000000,-000.83,0000.24,0000.38,-000.32,0000.13,0000.16,0001.14,0001.01,0000.73,17.1,23.8,,00.0,0672.6,30.9
2021-10-02T23:30:00Z,00000200,01000000,0000.48,0000.44,0000.25,-000.29,0000.19,-000.09,0000.98,0000.94,0001.04,17.1,23.7,,00.0,0672.6,30.9
2021-10-02T23:31:00Z,00000200,01000000,0001.37,0000.12,-000.03,0000.12,0000.26,0000.06,0001.11,0001.11,0000.68,17.0,23.7,,00.0,0672.6,30.9
2021-10-02T23:32:00Z,00000200,01000000,-000.22,-000.07,0000.41,0000.20,0000.08,0000.02,0000.87,0000.43,0000.75,17.1,23.7,,00.0,0672.5,30.9
2021-10-02T23:33:00Z,00000200,01000000,0007.88,0005.69,0003.53,0001.14,0001.46,0001.01,0069.72,0064.68,0052.17,17.1,23.7,,00.0,0672.5,31.0
2021-10-02T23:34:00Z,00000200,01000000,0017.65,0012.22,0007.91,0003.38,0003.04,0002.01,0170.71,0159.28,0130.25,17.1,23.8,,00.0,0672.5,31.0
2021-10-02T23:35:00Z,00000200,01000000,0012.93,0008.57,0005.91,0002.35,0002.29,0001.46,0142.23,0133.87,0109.72,17.2,23.8,,00.0,0672.6,31.0
2021-10-02T23:36:00Z,00000200,01000000,0000.73,0000.66,0000.24,-000.13,0000.06,0000.07,0003.93,0003.60,0002.84,17.3,23.8,,00.0,0672.6,31.0
2021-10-02T23:37:00Z,00000200,01000000,0000.04,0000.56,0000.02,0000.48,0000.15,-000.04,0001.64,0001.24,0001.05,17.3,23.8,,00.0,0672.6,31.0
2021-10-02T23:38:00Z,00000200,01000000,0001.08,0000.29,0000.25,-000.60,0000.29,-000.06,0000.95,0000.99,0000.72,17.4,23.9,,00.0,0672.6,31.0
2021-10-02T23:39:00Z,00000200,01000000,0000.27,0000.30,0000.10,0000.24,-000.01,0000.00,0000.64,0000.72,0000.58,17.4,23.9,,00.0,0672.6,31.0
2021-10-02T23:40:00Z,00000200,01000000,-000.10,0000.26,0000.19,0000.09,0000.14,-000.00,0000.65,0000.61,0000.41,17.4,23.9,,00.0,0672.6,31.0
2021-10-02T23:41:00Z,00000200,01000000,-000.07,-000.01,0000.13,-000.55,-000.11,0000.35,0000.64,0000.58,0000.77,17.4,23.9,,00.0,0672.6,31.0
2021-10-02T23:42:00Z,00000200,01000000,0000.47,0000.34,0000.33,0000.02,0000.11,0000.53,0000.54,0000.48,0000.48,17.3,23.9,,00.0,0672.5,30.9
2021-10-02T23:43:00Z,00000200,01000000,0000.05,0000.44,0000.04,0000.21,0000.02,0000.15,0000.31,0000.46,-000.14,17.2,23.8,,00.0,0672.5,30.9
2021-10-02T23:44:00Z,00000200,01000000,0000.26,0000.39,0000.13,0000.05,0000.54,-000.05,0000.47,0000.32,0000.60,17.2,23.8,,00.0,0672.5,30.9
2021-10-02T23:45:00Z,00000200,01000000,0001.42,0000.41,0000.14,-000.25,0000.05,0000.37,0000.78,0000.56,0000.35,17.1,23.8,,00.0,0672.5,30.9
2021-10-02T23:46:00Z,00000200,01000000,0000.22,0000.17,0000.22,-000.39,0000.09,0000.15,0000.59,0000.52,0000.50,17.1,23.7,,00.0,0672.5,30.9
2021-10-02T23:47:00Z,00000200,01000000,0000.04,-000.17,0000.30,0000.06,-000.24,0000.29,0000.43,0000.33,0000.24,17.1,23.7,,00.0,0672.5,30.9
2021-10-02T23:48:00Z,00000200,01000000,0000.50,0000.37,0000.06,-000.14,-000.02,0000.26,0000.59,0000.70,0000.68,17.2,23.8,,00.0,0672.5,31.0
2021-10-02T23:49:00Z,00000200,01000000,0001.03,0000.13,0000.10,-000.17,0000.05,0000.33,0000.65,0000.85,0000.33,17.2,23.8,,00.0,0672.5,31.0
2021-10-02T23:50:00Z,00000200,01000000,0000.31,0000.80,0000.16,-000.38,-000.06,0000.15,0004.53,0003.82,0003.39,17.3,23.8,,00.0,0672.5,31.0
2021-10-02T23:51:00Z,00000200,01000000,0000.02,0000.18,0000.10,-000.00,-000.08,0000.18,0000.51,0000.58,0000.58,17.3,23.9,,00.0,0672.5,31.0
2021-10-02T23:52:00Z,00000200,01000000,0000.55,0000.26,0000.12,0000.32,-000.33,0000.20,0000.32,0000.42,0000.08,17.3,23.9,,00.0,0672.4,31.0
2021-10-02T23:53:00Z,00000200,01000000,0000.57,0000.11,0000.16,-000.31,-000.01,-000.17,0000.43,0000.14,0000.00,17.3,23.9,,00.0,0672.4,31.0
2021-10-02T23:54:00Z,00000200,01000000,0000.58,0000.71,0000.12,0000.30,-000.11,-000.03,-000.09,0000.40,0000.09,17.2,23.8,,00.0,0672.4,30.9
2021-10-02T23:55:00Z,00000200,01000000,-000.05,0000.29,-000.16,0000.08,0000.29,0000.13,0000.45,-000.03,0000.01,17.2,23.8,,00.0,0672.4,30.9
2021-10-02T23:56:00Z,00000200,01000000,0000.80,0000.06,-000.01,-000.09,0000.10,0000.01,0000.03,-000.13,0000.30,17.1,23.7,,00.0,0672.5,30.9
2021-10-02T23:57:00Z,00000200,41000000,,,,,,,0003.39,0003.12,0002.48,17.1,23.8,,00.0,0672.3,30.9
2021-10-02T23:58:00Z,00000200,61000000,,,,,,,-001.00,-000.75,-000.73,16.6,23.9,,00.0,0671.5,30.9
2021-10-02T23:59:00Z,00000200,21000000,,,,,,,-000.42,-000.27,-000.26,16.6,24.0,,00.0,0671.4,30.9
